• In Germany
  • List of Countries
  • For 7 days
  • Water Temperature
  • Satellite Maps
  • Weather Map
  • Weather Widgets
  • user-avatar
    Login

    Hourly Weather Perth

    Today, 16 July, Monday

    Time Temperature Precipitation Wind Pressure Humidity
    00:00 +15°C° 0.2 mm 6 mps 760 mmHg 85%
    01:00 +15°C° 0.2 mm 6 mps 760 mmHg 85%
    02:00 +15°C° 0 mm 5 mps 759 mmHg 86%
    03:00 +15°C° 0.2 mm 6 mps 759 mmHg 85%
    04:00 +15°C° 0.2 mm 6 mps 758 mmHg 85%
    05:00 +15°C° 0.2 mm 6 mps 758 mmHg 84%
    06:00 +15°C° 0.2 mm 7 mps 758 mmHg 84%
    07:00 +15°C° 0.2 mm 7 mps 758 mmHg 84%
    08:00 +15°C° 0 mm 7 mps 758 mmHg 84%
    09:00 +16°C° 0.2 mm 7 mps 758 mmHg 82%
    10:00 +16°C° 0.2 mm 8 mps 758 mmHg 81%
    11:00 +16°C° 0.2 mm 8 mps 758 mmHg 80%
    12:00 +16°C° 0.2 mm 8 mps 758 mmHg 78%
    13:00 +16°C° 0.2 mm 8 mps 758 mmHg 77%
    14:00 +16°C° 0 mm 8 mps 758 mmHg 77%
    15:00 +16°C° 0.2 mm 8 mps 758 mmHg 76%
    16:00 +16°C° 0.2 mm 8 mps 758 mmHg 74%
    17:00 +16°C° 0.2 mm 7 mps 759 mmHg 73%
    18:00 +15°C° 0 mm 6 mps 759 mmHg 73%
    19:00 +14°C° 0 mm 6 mps 760 mmHg 75%
    20:00 +14°C° 0 mm 6 mps 760 mmHg 76%
    21:00 +13°C° 0 mm 5 mps 760 mmHg 77%
    22:00 +13°C° 0 mm 5 mps 761 mmHg 78%
    23:00 +12°C° 0 mm 4 mps 761 mmHg 79%

    Tomorrow, 17 July, Tuesday

    Time Temperature Precipitation Wind Pressure Humidity
    00:00 +12°C° 0 mm 3 mps 761 mmHg 79%
    01:00 +11°C° 0 mm 3 mps 761 mmHg 80%
    02:00 +12°C° 0 mm 2 mps 761 mmHg 81%
    03:00 +12°C° 0 mm 2 mps 761 mmHg 80%
    04:00 +12°C° 0 mm 2 mps 761 mmHg 80%
    05:00 +12°C° 0 mm 2 mps 761 mmHg 80%
    06:00 +12°C° 0 mm 2 mps 761 mmHg 80%
    07:00 +12°C° 0 mm 2 mps 761 mmHg 80%
    08:00 +12°C° 0 mm 3 mps 761 mmHg 79%
    09:00 +13°C° 0 mm 3 mps 761 mmHg 75%
    10:00 +14°C° 0 mm 4 mps 762 mmHg 71%
    11:00 +16°C° 0 mm 5 mps 762 mmHg 67%
    12:00 +16°C° 0 mm 5 mps 761 mmHg 67%
    13:00 +16°C° 0 mm 5 mps 761 mmHg 67%
    14:00 +16°C° 0 mm 6 mps 761 mmHg 66%
    15:00 +16°C° 0.1 mm 6 mps 761 mmHg 69%
    16:00 +15°C° 0.1 mm 5 mps 761 mmHg 72%
    17:00 +15°C° 0.1 mm 5 mps 761 mmHg 74%
    18:00 +14°C° 0.1 mm 5 mps 761 mmHg 76%
    19:00 +14°C° 0.1 mm 5 mps 761 mmHg 78%
    20:00 +14°C° 0.1 mm 4 mps 761 mmHg 80%
    21:00 +14°C° 0.1 mm 4 mps 761 mmHg 80%
    22:00 +14°C° 0.1 mm 4 mps 761 mmHg 81%
    23:00 +14°C° 0.1 mm 4 mps 761 mmHg 81%

    Day after tomorrow, 18 July, Wednesday

    Time Temperature Precipitation Wind Pressure Humidity
    00:00 +14°C° 0.1 mm 5 mps 761 mmHg 82%
    01:00 +13°C° 0.1 mm 5 mps 761 mmHg 83%
    02:00 +13°C° 0.1 mm 5 mps 761 mmHg 83%
    03:00 +13°C° 0.1 mm 4 mps 760 mmHg 83%
    04:00 +13°C° 0.1 mm 4 mps 760 mmHg 83%
    05:00 +13°C° 0.1 mm 4 mps 760 mmHg 83%
    06:00 +13°C° 0.1 mm 4 mps 760 mmHg 83%
    07:00 +13°C° 0.1 mm 4 mps 760 mmHg 83%
    08:00 +14°C° 0.1 mm 4 mps 761 mmHg 83%
    09:00 +15°C° 0.2 mm 4 mps 761 mmHg 79%
    10:00 +16°C° 0.2 mm 5 mps 761 mmHg 74%
    11:00 +16°C° 0.2 mm 5 mps 762 mmHg 70%
    12:00 +16°C° 0.3 mm 5 mps 761 mmHg 71%
    13:00 +16°C° 0.3 mm 5 mps 761 mmHg 71%
    14:00 +16°C° 0.3 mm 5 mps 761 mmHg 72%
    15:00 +16°C° 0.1 mm 5 mps 761 mmHg 73%
    16:00 +17°C° 0.1 mm 4 mps 761 mmHg 75%
    17:00 +15°C° 0.1 mm 4 mps 762 mmHg 76%
    18:00 +14°C° 0.1 mm 4 mps 762 mmHg 79%
    19:00 +13°C° 0.1 mm 3 mps 763 mmHg 83%
    20:00 +12°C° 0.1 mm 3 mps 763 mmHg 86%
    21:00 +12°C° 0.1 mm 3 mps 764 mmHg 86%
    22:00 +12°C° 0.1 mm 3 mps 764 mmHg 86%
    23:00 +11°C° 0.1 mm 4 mps 765 mmHg 86%

    19 July, Thursday

    Time Temperature Precipitation Wind Pressure Humidity
    00:00 +11°C° 0 mm 3 mps 765 mmHg 85%
    01:00 +10°C° 0 mm 3 mps 765 mmHg 85%
    02:00 +9°C° 0 mm 3 mps 765 mmHg 84%
    03:00 +9°C° 0 mm 3 mps 765 mmHg 85%
    04:00 +8°C° 0 mm 3 mps 765 mmHg 85%
    05:00 +8°C° 0 mm 3 mps 765 mmHg 85%
    06:00 +8°C° 0 mm 3 mps 766 mmHg 85%
    07:00 +7°C° 0 mm 4 mps 767 mmHg 85%
    08:00 +7°C° 0 mm 4 mps 767 mmHg 84%
    09:00 +10°C° 0 mm 4 mps 767 mmHg 76%
    10:00 +12°C° 0 mm 4 mps 767 mmHg 67%
    11:00 +13°C° 0 mm 4 mps 767 mmHg 59%
    12:00 +14°C° 0 mm 3 mps 767 mmHg 55%
    13:00 +16°C° 0 mm 2 mps 766 mmHg 51%
    14:00 +17°C° 0 mm 2 mps 765 mmHg 47%
    15:00 +16°C° 0 mm 2 mps 765 mmHg 51%
    16:00 +16°C° 0 mm 1 mps 765 mmHg 54%
    17:00 +15°C° 0 mm 1 mps 765 mmHg 58%
    18:00 +14°C° 0 mm 2 mps 765 mmHg 61%
    19:00 +12°C° 0 mm 2 mps 766 mmHg 64%
    20:00 +10°C° 0 mm 2 mps 766 mmHg 67%
    21:00 +10°C° 0 mm 3 mps 766 mmHg 67%
    22:00 +9°C° 0 mm 3 mps 766 mmHg 67%
    23:00 +9°C° 0 mm 3 mps 766 mmHg 67%

    20 July, Friday

    Time Temperature Precipitation Wind Pressure Humidity
    00:00 +8°C° 0 mm 4 mps 765 mmHg 67%
    01:00 +8°C° 0 mm 4 mps 764 mmHg 66%
    02:00 +8°C° 0 mm 4 mps 764 mmHg 66%
    03:00 +8°C° 0 mm 4 mps 763 mmHg 64%
    04:00 +8°C° 0 mm 4 mps 763 mmHg 62%
    05:00 +8°C° 0 mm 4 mps 762 mmHg 61%
    06:00 +8°C° 0 mm 4 mps 762 mmHg 61%
    07:00 +8°C° 0 mm 4 mps 762 mmHg 62%
    08:00 +9°C° 0 mm 5 mps 762 mmHg 63%
    09:00 +12°C° 0 mm 5 mps 762 mmHg 60%
    10:00 +15°C° 0 mm 5 mps 761 mmHg 57%
    11:00 +17°C° 0 mm 6 mps 761 mmHg 54%
    12:00 +19°C° 0 mm 6 mps 760 mmHg 53%
    13:00 +20°C° 0 mm 6 mps 759 mmHg 52%
    14:00 +20°C° 0 mm 6 mps 758 mmHg 51%
    15:00 +20°C° 0 mm 6 mps 758 mmHg 57%
    16:00 +19°C° 0 mm 5 mps 757 mmHg 63%
    17:00 +17°C° 0 mm 5 mps 757 mmHg 69%
    18:00 +17°C° 0.1 mm 5 mps 757 mmHg 73%
    19:00 +16°C° 0.1 mm 5 mps 758 mmHg 77%
    20:00 +15°C° 0.1 mm 5 mps 758 mmHg 81%
    21:00 +15°C° 0.1 mm 5 mps 758 mmHg 82%
    22:00 +15°C° 0.1 mm 5 mps 757 mmHg 83%
    23:00 +15°C° 0.1 mm 5 mps 757 mmHg 83%

    21 July, Saturday

    Time Temperature Precipitation Wind Pressure Humidity
    00:00 +15°C° 0 mm 5 mps 756 mmHg 84%
    01:00 +15°C° 0 mm 6 mps 756 mmHg 85%
    02:00 +15°C° 0 mm 6 mps 755 mmHg 85%
    03:00 +15°C° 0 mm 6 mps 755 mmHg 86%
    04:00 +15°C° 0 mm 6 mps 754 mmHg 86%
    05:00 +15°C° 0 mm 6 mps 754 mmHg 87%
    06:00 +15°C° 0.1 mm 7 mps 754 mmHg 86%
    07:00 +16°C° 0.1 mm 8 mps 753 mmHg 86%
    08:00 +16°C° 0.1 mm 8 mps 753 mmHg 86%
    09:00 +17°C° 1.1 mm 9 mps 753 mmHg 83%
    10:00 +18°C° 1.1 mm 10 mps 753 mmHg 81%
    11:00 +19°C° 1.1 mm 10 mps 752 mmHg 78%
    12:00 +18°C° 4.3 mm 10 mps 752 mmHg 82%
    13:00 +18°C° 4.3 mm 9 mps 751 mmHg 85%
    14:00 +17°C° 4.3 mm 8 mps 750 mmHg 88%
    15:00 +17°C° 1.2 mm 8 mps 750 mmHg 87%
    16:00 +17°C° 1.2 mm 8 mps 750 mmHg 86%
    17:00 +17°C° 1.2 mm 8 mps 751 mmHg 85%
    18:00 +16°C° 0.3 mm 8 mps 751 mmHg 83%
    19:00 +16°C° 0.3 mm 8 mps 751 mmHg 81%
    20:00 +15°C° 0.3 mm 7 mps 751 mmHg 80%
    21:00 +15°C° 0.3 mm 8 mps 751 mmHg 80%
    22:00 +15°C° 0.3 mm 8 mps 751 mmHg 80%
    23:00 +15°C° 0.3 mm 9 mps 751 mmHg 80%
    Show more